Weather History for Cardak, Turkey

Change the Weather History Date:

Monday, September 30, 2013

  Actual Average Record
Temperature  
Mean Temperature 65 °F -  
Max Temperature 82 °F - - ()
Min Temperature 48 °F - - ()
Growing Degree Days 15 (Base 50)    
Moisture  
Dew Point 40 °F    
Average Humidity 42    
Maximum Humidity 66    
Minimum Humidity 21    
Precipitation  
Precipitation 0.00 in - - ()
Sea Level Pressure  
Sea Level Pressure 29.97 in    
Wind  
Wind Speed 3 mph ()    
Max Wind Speed 14 mph    
Max Gust Speed -    
T = Trace of Precipitation, MM = Missing Value Source: Averaged Metar Reports

Daily Weather History Graph

Daily Weather History Graph

Search for Another Location

Airport:

Trip Planner

Search our weather history database for the weather conditions in past years. The results will help you decide how hot, cold, wet, or windy it might be!

Date:

Astronomy

Sep. 30, 2013 Rise Set
Actual Time 6:55 AM EEST 6:45 PM EEST
Civil Twilight 6:29 AM EEST 7:12 PM EEST
Nautical Twilight 5:59 AM EEST 7:42 PM EEST
Astronomical Twilight 5:28 AM EEST 8:13 PM EEST
Moon 2:18 AM EEST (9/30) 4:01 PM EEST (9/30)
Length of Visible Light 12h 42m
Length of Day
11h 50m
Waning Crescent, 21% of the Moon is Illuminated
Sep 30
Waning Crescent
Oct 5
New
Oct 12
First Quarter
Oct 19
Full
Oct 27
Last Quarter

Hourly Weather History & Observations

Time (EEST) Temp. Dew Point Humidity Pressure Visibility Wind Dir Wind Speed Gust Speed Precip Events Conditions
12:50 AM 55.4 °F 37.4 °F 51% 30.04 in - Variable 2.3 mph - N/A   Clear
1:50 AM 51.8 °F 35.6 °F 54% 30.04 in - ESE 3.5 mph - N/A   Clear
2:50 AM 55.4 °F 37.4 °F 51% 30.01 in - Calm Calm - N/A   Clear
3:50 AM 53.6 °F 37.4 °F 54% 30.01 in - Calm Calm - N/A   Clear
4:50 AM 50.0 °F 35.6 °F 58% 30.01 in - Calm Calm - N/A   Clear
5:50 AM 48.2 °F 35.6 °F 62% 30.01 in - Calm Calm - N/A   Clear
6:50 AM 48.2 °F 37.4 °F 66% 30.01 in - Calm Calm - N/A   Clear
7:50 AM 50.0 °F 37.4 °F 62% 30.01 in - Calm Calm - N/A   Clear
8:50 AM 59.0 °F 42.8 °F 55% 30.01 in - ESE 1.2 mph - N/A   Clear
9:50 AM 64.4 °F 44.6 °F 49% 30.01 in - East 6.9 mph - N/A   Clear
10:50 AM 69.8 °F 42.8 °F 38% 30.01 in - ENE 8.1 mph - N/A   Clear
11:50 AM 75.2 °F 42.8 °F 31% 29.98 in - ENE 8.1 mph - N/A   Clear
12:50 PM 80.6 °F 41.0 °F 24% 29.98 in - NNE 4.6 mph - N/A   Clear
1:50 PM 82.4 °F 39.2 °F 21% 29.95 in - SW 5.8 mph - N/A   Clear
2:50 PM 82.4 °F 41.0 °F 23% 29.92 in - West 11.5 mph - N/A   Clear
3:50 PM 82.4 °F 39.2 °F 21% 29.92 in - West 8.1 mph - N/A   Clear
4:50 PM 80.6 °F 39.2 °F 23% 29.92 in - WNW 13.8 mph - N/A   Clear
5:50 PM 78.8 °F 41.0 °F 26% 29.92 in - WNW 11.5 mph - N/A   Clear
6:50 PM 75.2 °F 41.0 °F 29% 29.92 in - WNW 9.2 mph - N/A   Clear
7:50 PM 69.8 °F 41.0 °F 35% 29.92 in - West 4.6 mph - N/A   Clear
8:50 PM 64.4 °F 41.0 °F 42% 29.92 in - West 6.9 mph - N/A   Clear
9:50 PM 64.4 °F 42.8 °F 45% 29.95 in - SW 8.1 mph - N/A   Clear
10:50 PM 62.6 °F 41.0 °F 45% 29.92 in - WSW 5.8 mph - N/A   Clear
11:50 PM 62.6 °F 41.0 °F 45% 29.95 in - Calm Calm - N/A   Clear